Time,TemperatureF,DewpointF,PressureIn,WindDirection,WindDirectionDegrees,WindSpeedMPH,WindSpeedGustMPH,Humidity,HourlyPrecipIn,Conditions,Clouds,dailyrainin,SolarRadiationWatts/m^2,SoftwareType,DateUTC
2013-04-13 00:02:00,37.9,32.9,29.87,West,259,2.0,7.0,82,0.00,,,0.00,0,HR-IXP-WINDi_r2_v1.2,2013-04-13 05:02:00,
2013-04-13 00:07:00,37.9,33.2,29.87,West,263,0.0,7.0,83,0.00,,,0.00,0,HR-IXP-WINDi_r2_v1.2,2013-04-13 05:07:00,
2013-04-13 00:12:00,37.9,33.5,29.87,SW,219,3.0,7.0,84,0.00,,,0.00,0,HR-IXP-WINDi_r2_v1.2,2013-04-13 05:12:00,
2013-04-13 00:17:00,37.9,33.5,29.87,SW,234,2.0,7.0,84,0.00,,,0.00,0,HR-IXP-WINDi_r2_v1.2,2013-04-13 05:17:00,
2013-04-13 00:23:00,37.9,33.5,29.87,SW,229,1.0,8.0,84,0.00,,,0.00,0,HR-IXP-WINDi_r2_v1.2,2013-04-13 05:23:00,
2013-04-13 00:28:00,37.9,33.5,29.88,WSW,243,5.0,8.0,84,0.00,,,0.00,0,HR-IXP-WINDi_r2_v1.2,2013-04-13 05:28:00,
2013-04-13 00:33:00,37.9,33.5,29.88,WSW,244,2.0,8.0,84,0.00,,,0.00,0,HR-IXP-WINDi_r2_v1.2,2013-04-13 05:33:00,
2013-04-13 00:38:00,37.9,33.5,29.88,WSW,256,3.0,8.0,84,0.00,,,0.00,0,HR-IXP-WINDi_r2_v1.2,2013-04-13 05:38:00,
2013-04-13 00:44:00,38.0,33.6,29.88,WSW,248,4.0,7.0,84,0.00,,,0.00,0,HR-IXP-WINDi_r2_v1.2,2013-04-13 05:44:00,
2013-04-13 00:49:00,38.0,33.6,29.87,West,262,1.0,7.0,84,0.00,,,0.00,0,HR-IXP-WINDi_r2_v1.2,2013-04-13 05:49:00,
2013-04-13 00:54:00,38.0,33.6,29.87,SW,235,1.0,7.0,84,0.00,,,0.00,0,HR-IXP-WINDi_r2_v1.2,2013-04-13 05:54:00,
2013-04-13 00:59:00,38.0,33.6,29.88,West,261,3.0,8.0,84,0.00,,,0.00,0,HR-IXP-WINDi_r2_v1.2,2013-04-13 05:59:00,
2013-04-13 01:04:00,37.9,33.8,29.88,West,263,4.0,9.0,85,0.00,,,0.00,0,HR-IXP-WINDi_r2_v1.2,2013-04-13 06:04:00,
2013-04-13 01:09:00,37.8,34.2,29.88,West,279,0.0,9.0,87,0.00,,,0.00,0,HR-IXP-WINDi_r2_v1.2,2013-04-13 06:09:00,
2013-04-13 01:14:00,37.6,34.3,29.88,West,281,2.0,11.0,88,0.00,,,0.00,0,HR-IXP-WINDi_r2_v1.2,2013-04-13 06:14:00,
2013-04-13 01:19:00,37.4,34.4,29.88,West,264,4.0,11.0,89,0.00,,,0.00,0,HR-IXP-WINDi_r2_v1.2,2013-04-13 06:19:00,
2013-04-13 01:24:00,37.2,34.5,29.88,WNW,292,4.0,11.0,90,0.00,,,0.00,0,HR-IXP-WINDi_r2_v1.2,2013-04-13 06:24:00,
2013-04-13 01:29:00,37.1,34.7,29.88,NW,323,6.0,8.0,91,0.00,,,0.00,0,HR-IXP-WINDi_r2_v1.2,2013-04-13 06:29:00,
2013-04-13 01:35:00,37.0,34.6,29.88,WNW,286,1.0,8.0,91,0.00,,,0.00,0,HR-IXP-WINDi_r2_v1.2,2013-04-13 06:35:00,
2013-04-13 01:40:00,36.9,34.8,29.88,WNW,289,6.0,9.0,92,0.00,,,0.00,0,HR-IXP-WINDi_r2_v1.2,2013-04-13 06:40:00,
2013-04-13 01:46:00,36.8,34.7,29.88,West,264,6.0,9.0,92,0.00,,,0.00,0,HR-IXP-WINDi_r2_v1.2,2013-04-13 06:46:00,
2013-04-13 01:52:00,36.6,34.7,29.88,WSW,247,3.0,9.0,93,0.00,,,0.00,0,HR-IXP-WINDi_r2_v1.2,2013-04-13 06:52:00,
2013-04-13 01:57:00,36.6,34.7,29.88,West,261,2.0,9.0,93,0.00,,,0.00,0,HR-IXP-WINDi_r2_v1.2,2013-04-13 06:57:00,
2013-04-13 02:03:00,36.5,34.9,29.87,West,261,1.0,4.0,94,0.00,,,0.00,0,HR-IXP-WINDi_r2_v1.2,2013-04-13 07:03:00,
2013-04-13 02:08:00,36.5,34.9,29.88,West,271,2.0,7.0,94,0.00,,,0.00,0,HR-IXP-WINDi_r2_v1.2,2013-04-13 07:08:00,
2013-04-13 02:13:00,36.5,34.9,29.88,West,271,6.0,10.0,94,0.00,,,0.00,0,HR-IXP-WINDi_r2_v1.2,2013-04-13 07:13:00,
2013-04-13 02:18:00,36.4,34.8,29.88,WSW,242,6.0,10.0,94,0.00,,,0.00,0,HR-IXP-WINDi_r2_v1.2,2013-04-13 07:18:00,
2013-04-13 02:23:00,36.4,34.8,29.88,WSW,254,4.0,10.0,94,0.00,,,0.00,0,HR-IXP-WINDi_r2_v1.2,2013-04-13 07:23:00,
2013-04-13 02:28:00,36.3,34.7,29.88,West,259,7.0,10.0,94,0.00,,,0.00,0,HR-IXP-WINDi_r2_v1.2,2013-04-13 07:28:00,
2013-04-13 02:34:00,36.3,34.7,29.88,WSW,256,3.0,7.0,94,0.00,,,0.00,0,HR-IXP-WINDi_r2_v1.2,2013-04-13 07:34:00,
2013-04-13 02:39:00,36.3,34.4,29.88,WSW,257,4.0,8.0,93,0.00,,,0.00,0,HR-IXP-WINDi_r2_v1.2,2013-04-13 07:39:00,
2013-04-13 02:44:00,36.3,34.4,29.88,West,271,4.0,8.0,93,0.00,,,0.00,0,HR-IXP-WINDi_r2_v1.2,2013-04-13 07:44:00,
2013-04-13 02:49:00,36.4,34.3,29.87,WSW,249,7.0,12.0,92,0.00,,,0.00,0,HR-IXP-WINDi_r2_v1.2,2013-04-13 07:49:00,
2013-04-13 02:54:00,36.6,34.2,29.87,WSW,242,8.0,13.0,91,0.00,,,0.00,0,HR-IXP-WINDi_r2_v1.2,2013-04-13 07:54:00,
2013-04-13 03:00:00,36.6,33.9,29.87,SW,230,4.0,13.0,90,0.00,,,0.00,0,HR-IXP-WINDi_r2_v1.2,2013-04-13 08:00:00,
2013-04-13 03:05:00,36.7,34.0,29.88,West,267,7.0,12.0,90,0.00,,,0.00,0,HR-IXP-WINDi_r2_v1.2,2013-04-13 08:05:00,
2013-04-13 03:10:00,36.8,33.8,29.87,West,260,5.0,10.0,89,0.00,,,0.00,0,HR-IXP-WINDi_r2_v1.2,2013-04-13 08:10:00,
2013-04-13 03:15:00,36.8,33.8,29.87,WSW,242,3.0,9.0,89,0.00,,,0.00,0,HR-IXP-WINDi_r2_v1.2,2013-04-13 08:15:00,
2013-04-13 03:21:00,36.8,33.8,29.87,West,270,3.0,8.0,89,0.00,,,0.00,0,HR-IXP-WINDi_r2_v1.2,2013-04-13 08:21:00,
2013-04-13 03:26:00,36.8,33.8,29.87,WSW,242,6.0,10.0,89,0.00,,,0.00,0,HR-IXP-WINDi_r2_v1.2,2013-04-13 08:26:00,
2013-04-13 03:31:00,36.8,33.8,29.87,West,276,4.0,10.0,89,0.00,,,0.00,0,HR-IXP-WINDi_r2_v1.2,2013-04-13 08:31:00,
2013-04-13 03:36:00,36.8,33.5,29.87,WSW,253,3.0,9.0,88,0.00,,,0.00,0,HR-IXP-WINDi_r2_v1.2,2013-04-13 08:36:00,
2013-04-13 03:41:00,36.8,33.5,29.87,SW,235,1.0,9.0,88,0.00,,,0.00,0,HR-IXP-WINDi_r2_v1.2,2013-04-13 08:41:00,
2013-04-13 03:46:00,36.8,33.0,29.87,West,277,4.0,13.0,86,0.00,,,0.00,0,HR-IXP-WINDi_r2_v1.2,2013-04-13 08:46:00,
2013-04-13 03:52:00,36.8,32.4,29.87,West,278,5.0,14.0,84,0.00,,,0.00,0,HR-IXP-WINDi_r2_v1.2,2013-04-13 08:52:00,
2013-04-13 03:57:00,36.9,32.5,29.87,West,281,6.0,14.0,84,0.00,,,0.00,0,HR-IXP-WINDi_r2_v1.2,2013-04-13 08:57:00,
2013-04-13 04:02:00,36.8,32.1,29.87,West,264,3.0,12.0,83,0.00,,,0.00,0,HR-IXP-WINDi_r2_v1.2,2013-04-13 09:02:00,
2013-04-13 04:07:00,36.8,32.1,29.87,West,268,3.0,11.0,83,0.00,,,0.00,0,HR-IXP-WINDi_r2_v1.2,2013-04-13 09:07:00,
2013-04-13 04:12:00,36.8,32.1,29.87,West,265,6.0,9.0,83,0.00,,,0.00,0,HR-IXP-WINDi_r2_v1.2,2013-04-13 09:12:00,
2013-04-13 04:17:00,36.7,32.3,29.87,West,267,2.0,9.0,84,0.00,,,0.00,0,HR-IXP-WINDi_r2_v1.2,2013-04-13 09:17:00,
2013-04-13 04:22:00,36.7,32.3,29.87,West,270,3.0,9.0,84,0.00,,,0.00,0,HR-IXP-WINDi_r2_v1.2,2013-04-13 09:22:00,
2013-04-13 04:27:00,36.6,32.5,29.87,West,270,0.0,6.0,85,0.00,,,0.00,0,HR-IXP-WINDi_r2_v1.2,2013-04-13 09:27:00,
2013-04-13 04:33:00,36.6,33.1,29.87,West,269,1.0,5.0,87,0.00,,,0.00,0,HR-IXP-WINDi_r2_v1.2,2013-04-13 09:33:00,
2013-04-13 04:38:00,36.5,33.0,29.87,WSW,240,2.0,6.0,87,0.00,,,0.00,0,HR-IXP-WINDi_r2_v1.2,2013-04-13 09:38:00,
2013-04-13 04:43:00,36.5,33.0,29.87,West,271,4.0,6.0,87,0.00,,,0.00,0,HR-IXP-WINDi_r2_v1.2,2013-04-13 09:43:00,
2013-04-13 04:49:00,36.5,33.0,29.87,SW,227,0.0,6.0,87,0.00,,,0.00,0,HR-IXP-WINDi_r2_v1.2,2013-04-13 09:49:00,
2013-04-13 04:54:00,36.5,32.7,29.87,West,263,4.0,6.0,86,0.00,,,0.00,0,HR-IXP-WINDi_r2_v1.2,2013-04-13 09:54:00,
2013-04-13 04:59:00,36.4,32.3,29.87,West,266,0.0,10.0,85,0.00,,,0.00,0,HR-IXP-WINDi_r2_v1.2,2013-04-13 09:59:00,
2013-04-13 05:04:00,36.4,32.6,29.88,WSW,257,3.0,10.0,86,0.00,,,0.00,0,HR-IXP-WINDi_r2_v1.2,2013-04-13 10:04:00,
2013-04-13 05:09:00,36.4,32.3,29.87,WNW,296,4.0,13.0,85,0.00,,,0.00,0,HR-IXP-WINDi_r2_v1.2,2013-04-13 10:09:00,
2013-04-13 05:14:00,36.4,32.3,29.88,WSW,241,4.0,13.0,85,0.00,,,0.00,0,HR-IXP-WINDi_r2_v1.2,2013-04-13 10:14:00,
2013-04-13 05:19:00,36.3,32.5,29.87,West,263,2.0,11.0,86,0.00,,,0.00,0,HR-IXP-WINDi_r2_v1.2,2013-04-13 10:19:00,
2013-04-13 05:24:00,36.2,32.4,29.87,SW,234,4.0,9.0,86,0.00,,,0.00,0,HR-IXP-WINDi_r2_v1.2,2013-04-13 10:24:00,
2013-04-13 05:30:00,36.1,32.6,29.87,WSW,253,2.0,9.0,87,0.00,,,0.00,0,HR-IXP-WINDi_r2_v1.2,2013-04-13 10:30:00,
2013-04-13 05:35:00,36.0,32.5,29.87,West,281,9.0,9.0,87,0.00,,,0.00,0,HR-IXP-WINDi_r2_v1.2,2013-04-13 10:35:00,
2013-04-13 05:40:00,35.8,32.6,29.87,WSW,251,6.0,10.0,88,0.00,,,0.00,0,HR-IXP-WINDi_r2_v1.2,2013-04-13 10:40:00,
2013-04-13 05:45:00,35.7,32.5,29.87,WSW,249,3.0,10.0,88,0.00,,,0.00,0,HR-IXP-WINDi_r2_v1.2,2013-04-13 10:45:00,
2013-04-13 05:50:00,35.6,32.4,29.88,West,277,7.0,11.0,88,0.00,,,0.00,0,HR-IXP-WINDi_r2_v1.2,2013-04-13 10:50:00,
2013-04-13 05:55:00,35.6,32.6,29.88,West,281,3.0,11.0,89,0.00,,,0.00,0,HR-IXP-WINDi_r2_v1.2,2013-04-13 10:55:00,
2013-04-13 06:00:00,35.5,32.5,29.88,West,268,6.0,8.0,89,0.00,,,0.00,0,HR-IXP-WINDi_r2_v1.2,2013-04-13 11:00:00,
2013-04-13 06:06:00,35.5,32.3,29.88,WNW,292,6.0,8.0,88,0.00,,,0.00,0,HR-IXP-WINDi_r2_v1.2,2013-04-13 11:06:00,
2013-04-13 06:11:00,35.4,32.2,29.88,WSW,245,4.0,8.0,88,0.00,,,0.00,0,HR-IXP-WINDi_r2_v1.2,2013-04-13 11:11:00,
2013-04-13 06:17:00,35.4,32.2,29.87,WSW,247,3.0,8.0,88,0.00,,,0.00,0,HR-IXP-WINDi_r2_v1.2,2013-04-13 11:17:00,
2013-04-13 06:22:00,35.4,32.2,29.88,WNW,287,1.0,10.0,88,0.00,,,0.00,0,HR-IXP-WINDi_r2_v1.2,2013-04-13 11:22:00,
2013-04-13 06:27:00,35.4,32.2,29.88,West,275,4.0,10.0,88,0.00,,,0.00,0,HR-IXP-WINDi_r2_v1.2,2013-04-13 11:27:00,
2013-04-13 06:32:00,35.4,32.2,29.88,West,259,2.0,8.0,88,0.00,,,0.00,0,HR-IXP-WINDi_r2_v1.2,2013-04-13 11:32:00,
2013-04-13 06:37:00,35.3,32.1,29.88,West,261,3.0,7.0,88,0.00,,,0.00,5,HR-IXP-WINDi_r2_v1.2,2013-04-13 11:37:00,
2013-04-13 06:43:00,35.3,32.4,29.88,WSW,248,3.0,7.0,89,0.00,,,0.00,7,HR-IXP-WINDi_r2_v1.2,2013-04-13 11:43:00,
2013-04-13 06:48:00,35.3,32.4,29.88,West,263,4.0,7.0,89,0.00,,,0.00,11,HR-IXP-WINDi_r2_v1.2,2013-04-13 11:48:00,
2013-04-13 06:53:00,35.3,32.6,29.88,SW,228,6.0,7.0,90,0.00,,,0.00,11,HR-IXP-WINDi_r2_v1.2,2013-04-13 11:53:00,
2013-04-13 06:58:00,35.1,32.4,29.89,WSW,238,2.0,10.0,90,0.00,,,0.00,12,HR-IXP-WINDi_r2_v1.2,2013-04-13 11:58:00,
2013-04-13 07:03:00,35.0,32.6,29.88,WSW,256,4.0,10.0,91,0.00,,,0.00,12,HR-IXP-WINDi_r2_v1.2,2013-04-13 12:03:00,
2013-04-13 07:08:00,35.0,32.9,29.88,West,264,6.0,10.0,92,0.00,,,0.00,14,HR-IXP-WINDi_r2_v1.2,2013-04-13 12:08:00,
2013-04-13 07:14:00,34.9,32.5,29.88,WNW,283,6.0,11.0,91,0.00,,,0.00,18,HR-IXP-WINDi_r2_v1.2,2013-04-13 12:14:00,
2013-04-13 07:19:00,34.9,32.2,29.88,West,278,2.0,11.0,90,0.00,,,0.00,23,HR-IXP-WINDi_r2_v1.2,2013-04-13 12:19:00,
2013-04-13 07:24:00,34.9,32.2,29.89,West,265,5.0,11.0,90,0.00,,,0.00,30,HR-IXP-WINDi_r2_v1.2,2013-04-13 12:24:00,
2013-04-13 07:29:00,35.0,32.3,29.89,West,270,3.0,9.0,90,0.00,,,0.00,44,HR-IXP-WINDi_r2_v1.2,2013-04-13 12:29:00,
2013-04-13 07:35:00,35.2,32.8,29.89,West,264,1.0,7.0,91,0.00,,,0.00,54,HR-IXP-WINDi_r2_v1.2,2013-04-13 12:35:00,
2013-04-13 07:40:00,35.2,32.5,29.89,West,269,3.0,13.0,90,0.00,,,0.00,53,HR-IXP-WINDi_r2_v1.2,2013-04-13 12:40:00,
2013-04-13 07:45:00,35.3,32.6,29.89,WSW,255,5.0,13.0,90,0.00,,,0.00,46,HR-IXP-WINDi_r2_v1.2,2013-04-13 12:45:00,
2013-04-13 07:50:00,35.5,32.8,29.89,WSW,251,3.0,12.0,90,0.00,,,0.00,40,HR-IXP-WINDi_r2_v1.2,2013-04-13 12:50:00,
2013-04-13 07:55:00,35.5,32.8,29.89,WSW,245,9.0,14.0,90,0.00,,,0.00,35,HR-IXP-WINDi_r2_v1.2,2013-04-13 12:55:00,
2013-04-13 08:00:00,35.5,32.8,29.89,West,271,4.0,14.0,90,0.00,,,0.00,49,HR-IXP-WINDi_r2_v1.2,2013-04-13 13:00:00,
2013-04-13 08:06:00,35.6,32.6,29.89,West,266,6.0,14.0,89,0.00,,,0.00,79,HR-IXP-WINDi_r2_v1.2,2013-04-13 13:06:00,
2013-04-13 08:11:00,35.6,32.6,29.89,WSW,254,5.0,14.0,89,0.00,,,0.00,67,HR-IXP-WINDi_r2_v1.2,2013-04-13 13:11:00,
2013-04-13 08:16:00,35.7,32.5,29.89,West,277,8.0,16.0,88,0.00,,,0.00,76,HR-IXP-WINDi_r2_v1.2,2013-04-13 13:16:00,
2013-04-13 08:22:00,35.8,32.3,29.89,West,279,4.0,16.0,87,0.00,,,0.00,81,HR-IXP-WINDi_r2_v1.2,2013-04-13 13:22:00,
2013-04-13 08:27:00,35.9,32.4,29.90,WSW,252,7.0,13.0,87,0.00,,,0.00,102,HR-IXP-WINDi_r2_v1.2,2013-04-13 13:27:00,
2013-04-13 08:32:00,35.9,32.4,29.90,West,270,7.0,12.0,87,0.00,,,0.00,113,HR-IXP-WINDi_r2_v1.2,2013-04-13 13:32:00,
2013-04-13 08:37:00,36.0,32.2,29.90,West,267,2.0,17.0,86,0.00,,,0.00,125,HR-IXP-WINDi_r2_v1.2,2013-04-13 13:37:00,
2013-04-13 08:43:00,36.1,32.0,29.90,SW,223,3.0,17.0,85,0.00,,,0.00,120,HR-IXP-WINDi_r2_v1.2,2013-04-13 13:43:00,
2013-04-13 08:48:00,36.2,32.1,29.90,SW,222,12.0,13.0,85,0.00,,,0.00,137,HR-IXP-WINDi_r2_v1.2,2013-04-13 13:48:00,
2013-04-13 08:53:00,36.4,32.3,29.90,WNW,289,9.0,12.0,85,0.00,,,0.00,163,HR-IXP-WINDi_r2_v1.2,2013-04-13 13:53:00,
2013-04-13 08:58:00,36.4,32.3,29.90,West,269,7.0,14.0,85,0.00,,,0.00,156,HR-IXP-WINDi_r2_v1.2,2013-04-13 13:58:00,
2013-04-13 09:04:00,36.5,32.1,29.90,WSW,257,3.0,14.0,84,0.00,,,0.00,148,HR-IXP-WINDi_r2_v1.2,2013-04-13 14:04:00,
2013-04-13 09:09:00,36.6,32.2,29.90,NW,307,10.0,12.0,84,0.00,,,0.00,125,HR-IXP-WINDi_r2_v1.2,2013-04-13 14:09:00,
2013-04-13 09:14:00,36.6,32.2,29.90,West,279,7.0,14.0,84,0.00,,,0.00,90,HR-IXP-WINDi_r2_v1.2,2013-04-13 14:14:00,
2013-04-13 09:19:00,36.5,31.8,29.90,WNW,286,3.0,14.0,83,0.00,,,0.00,49,HR-IXP-WINDi_r2_v1.2,2013-04-13 14:19:00,
2013-04-13 09:24:00,36.3,31.6,29.91,SW,229,14.0,14.0,83,0.00,,,0.00,26,HR-IXP-WINDi_r2_v1.2,2013-04-13 14:24:00,
2013-04-13 09:29:00,36.1,31.1,29.91,West,271,12.0,15.0,82,0.00,,,0.00,51,HR-IXP-WINDi_r2_v1.2,2013-04-13 14:29:00,
2013-04-13 09:34:00,35.9,30.6,29.91,West,274,8.0,15.0,81,0.00,,,0.00,67,HR-IXP-WINDi_r2_v1.2,2013-04-13 14:34:00,
2013-04-13 09:39:00,35.7,30.4,29.92,West,277,9.0,13.0,81,0.00,,,0.00,65,HR-IXP-WINDi_r2_v1.2,2013-04-13 14:39:00,
2013-04-13 09:45:00,35.6,30.3,29.91,West,276,7.0,15.0,81,0.00,,,0.00,77,HR-IXP-WINDi_r2_v1.2,2013-04-13 14:45:00,
2013-04-13 09:50:00,35.5,29.9,29.92,West,271,7.0,16.0,80,0.00,,,0.00,83,HR-IXP-WINDi_r2_v1.2,2013-04-13 14:50:00,
2013-04-13 09:55:00,35.5,30.2,29.92,West,264,8.0,16.0,81,0.00,,,0.00,98,HR-IXP-WINDi_r2_v1.2,2013-04-13 14:55:00,
2013-04-13 10:00:00,35.5,29.9,29.92,West,271,8.0,19.0,80,0.00,,,0.00,84,HR-IXP-WINDi_r2_v1.2,2013-04-13 15:00:00,
2013-04-13 10:05:00,35.5,29.9,29.92,West,266,6.0,19.0,80,0.00,,,0.00,116,HR-IXP-WINDi_r2_v1.2,2013-04-13 15:05:00,
2013-04-13 10:11:00,35.7,30.1,29.92,WNW,282,3.0,18.0,80,0.00,,,0.00,165,HR-IXP-WINDi_r2_v1.2,2013-04-13 15:11:00,
2013-04-13 10:16:00,36.0,30.4,29.92,WNW,288,12.0,14.0,80,0.00,,,0.00,236,HR-IXP-WINDi_r2_v1.2,2013-04-13 15:16:00,
2013-04-13 10:21:00,36.4,31.1,29.92,WSW,244,9.0,14.0,81,0.00,,,0.00,352,HR-IXP-WINDi_r2_v1.2,2013-04-13 15:21:00,
2013-04-13 10:26:00,36.9,31.0,29.92,WSW,243,13.0,15.0,79,0.00,,,0.00,148,HR-IXP-WINDi_r2_v1.2,2013-04-13 15:26:00,
2013-04-13 10:31:00,36.9,31.0,29.92,SW,231,14.0,15.0,79,0.00,,,0.00,109,HR-IXP-WINDi_r2_v1.2,2013-04-13 15:31:00,
2013-04-13 10:37:00,36.8,30.6,29.93,West,273,5.0,14.0,78,0.00,,,0.00,93,HR-IXP-WINDi_r2_v1.2,2013-04-13 15:37:00,
2013-04-13 10:42:00,36.7,30.5,29.93,WSW,252,7.0,18.0,78,0.00,,,0.00,83,HR-IXP-WINDi_r2_v1.2,2013-04-13 15:42:00,
2013-04-13 10:47:00,36.5,30.3,29.93,West,265,13.0,18.0,78,0.00,,,0.00,76,HR-IXP-WINDi_r2_v1.2,2013-04-13 15:47:00,
2013-04-13 10:52:00,36.3,30.1,29.93,WNW,289,6.0,17.0,78,0.00,,,0.00,102,HR-IXP-WINDi_r2_v1.2,2013-04-13 15:52:00,
2013-04-13 10:57:00,36.2,29.7,29.93,West,280,6.0,17.0,77,0.00,,,0.00,97,HR-IXP-WINDi_r2_v1.2,2013-04-13 15:57:00,
2013-04-13 11:03:00,36.2,29.7,29.93,West,269,7.0,15.0,77,0.00,,,0.00,107,HR-IXP-WINDi_r2_v1.2,2013-04-13 16:03:00,
2013-04-13 11:08:00,36.2,30.0,29.94,West,265,5.0,16.0,78,0.00,,,0.00,107,HR-IXP-WINDi_r2_v1.2,2013-04-13 16:08:00,
2013-04-13 11:13:00,36.2,30.3,29.94,West,274,9.0,16.0,79,0.00,,,0.00,95,HR-IXP-WINDi_r2_v1.2,2013-04-13 16:13:00,
2013-04-13 11:18:00,36.2,30.6,29.94,West,275,6.0,13.0,80,0.00,,,0.00,183,HR-IXP-WINDi_r2_v1.2,2013-04-13 16:18:00,
2013-04-13 11:24:00,36.4,30.8,29.94,WSW,246,6.0,14.0,80,0.00,,,0.00,214,HR-IXP-WINDi_r2_v1.2,2013-04-13 16:24:00,
2013-04-13 11:29:00,36.4,31.1,29.94,WSW,252,7.0,17.0,81,0.00,,,0.00,90,HR-IXP-WINDi_r2_v1.2,2013-04-13 16:29:00,
2013-04-13 11:34:00,36.0,31.0,29.95,West,268,7.0,17.0,82,0.00,,,0.00,105,HR-IXP-WINDi_r2_v1.2,2013-04-13 16:34:00,
2013-04-13 11:39:00,35.7,31.6,29.95,WSW,256,6.0,15.0,85,0.00,,,0.00,214,HR-IXP-WINDi_r2_v1.2,2013-04-13 16:39:00,
2013-04-13 11:44:00,35.9,31.8,29.95,SW,233,7.0,15.0,85,0.00,,,0.00,323,HR-IXP-WINDi_r2_v1.2,2013-04-13 16:44:00,
2013-04-13 11:49:00,36.4,32.3,29.95,West,269,2.0,9.0,85,0.00,,,0.00,459,HR-IXP-WINDi_r2_v1.2,2013-04-13 16:49:00,
2013-04-13 11:54:00,37.5,32.8,29.95,WSW,242,12.0,12.0,83,0.00,,,0.00,446,HR-IXP-WINDi_r2_v1.2,2013-04-13 16:54:00,
2013-04-13 12:00:00,38.2,31.9,29.95,West,278,8.0,15.0,78,0.00,,,0.00,236,HR-IXP-WINDi_r2_v1.2,2013-04-13 17:00:00,
2013-04-13 12:05:00,38.4,31.5,29.95,West,277,4.0,15.0,76,0.00,,,0.00,200,HR-IXP-WINDi_r2_v1.2,2013-04-13 17:05:00,
2013-04-13 12:10:00,38.6,30.7,29.95,WNW,298,5.0,16.0,73,0.00,,,0.00,125,HR-IXP-WINDi_r2_v1.2,2013-04-13 17:10:00,
2013-04-13 12:15:00,38.6,30.3,29.95,West,277,5.0,16.0,72,0.00,,,0.00,281,HR-IXP-WINDi_r2_v1.2,2013-04-13 17:15:00,
2013-04-13 12:20:00,38.8,30.9,29.95,West,265,7.0,14.0,73,0.00,,,0.00,199,HR-IXP-WINDi_r2_v1.2,2013-04-13 17:20:00,
2013-04-13 12:26:00,38.9,30.3,29.95,NW,315,10.0,12.0,71,0.00,,,0.00,200,HR-IXP-WINDi_r2_v1.2,2013-04-13 17:26:00,
2013-04-13 12:31:00,39.0,30.4,29.95,West,263,9.0,15.0,71,0.00,,,0.00,446,HR-IXP-WINDi_r2_v1.2,2013-04-13 17:31:00,
2013-04-13 12:36:00,39.7,30.3,29.95,WNW,284,11.0,16.0,69,0.00,,,0.00,320,HR-IXP-WINDi_r2_v1.2,2013-04-13 17:36:00,
2013-04-13 12:41:00,39.8,30.1,29.95,WNW,285,11.0,16.0,68,0.00,,,0.00,181,HR-IXP-WINDi_r2_v1.2,2013-04-13 17:41:00,
2013-04-13 12:46:00,39.5,29.1,29.95,West,264,8.0,18.0,66,0.00,,,0.00,327,HR-IXP-WINDi_r2_v1.2,2013-04-13 17:46:00,
2013-04-13 12:51:00,39.7,28.9,29.95,WNW,294,17.0,20.0,65,0.00,,,0.01,345,HR-IXP-WINDi_r2_v1.2,2013-04-13 17:51:00,
2013-04-13 12:57:00,39.7,28.5,29.95,WNW,296,9.0,20.0,64,0.00,,,0.01,250,HR-IXP-WINDi_r2_v1.2,2013-04-13 17:57:00,
2013-04-13 13:02:00,39.8,29.0,29.95,West,268,11.0,20.0,65,0.00,,,0.01,214,HR-IXP-WINDi_r2_v1.2,2013-04-13 18:02:00,
2013-04-13 13:07:00,39.9,29.4,29.95,West,259,10.0,18.0,66,0.00,,,0.01,144,HR-IXP-WINDi_r2_v1.2,2013-04-13 18:07:00,
2013-04-13 13:12:00,39.7,29.6,29.95,WSW,243,9.0,13.0,67,0.00,,,0.01,153,HR-IXP-WINDi_r2_v1.2,2013-04-13 18:12:00,
2013-04-13 13:17:00,39.7,30.3,29.96,West,281,20.0,20.0,69,0.00,,,0.01,325,HR-IXP-WINDi_r2_v1.2,2013-04-13 18:17:00,
2013-04-13 13:23:00,39.4,29.7,29.96,West,279,9.0,20.0,68,0.00,,,0.01,309,HR-IXP-WINDi_r2_v1.2,2013-04-13 18:23:00,
2013-04-13 13:27:00,39.6,29.5,29.96,WSW,250,11.0,20.0,67,0.00,,,0.01,246,HR-IXP-WINDi_r2_v1.2,2013-04-13 18:27:00,
2013-04-13 13:32:00,39.8,29.0,29.96,WSW,256,7.0,14.0,65,0.00,,,0.01,185,HR-IXP-WINDi_r2_v1.2,2013-04-13 18:32:00,
2013-04-13 13:37:00,39.8,29.0,29.96,WSW,248,9.0,17.0,65,0.00,,,0.01,148,HR-IXP-WINDi_r2_v1.2,2013-04-13 18:37:00,
2013-04-13 13:42:00,39.6,28.8,29.96,West,279,16.0,17.0,65,0.00,,,0.01,132,HR-IXP-WINDi_r2_v1.2,2013-04-13 18:42:00,
2013-04-13 13:47:00,39.3,29.2,29.96,SW,229,4.0,16.0,67,0.00,,,0.01,142,HR-IXP-WINDi_r2_v1.2,2013-04-13 18:47:00,
2013-04-13 13:52:00,39.4,29.7,29.97,West,263,8.0,16.0,68,0.00,,,0.01,162,HR-IXP-WINDi_r2_v1.2,2013-04-13 18:52:00,
2013-04-13 13:58:00,39.8,30.1,29.96,West,270,8.0,13.0,68,0.00,,,0.01,468,HR-IXP-WINDi_r2_v1.2,2013-04-13 18:58:00,
2013-04-13 14:03:00,40.5,30.0,29.96,West,281,11.0,17.0,66,0.00,,,0.01,805,HR-IXP-WINDi_r2_v1.2,2013-04-13 19:03:00,
2013-04-13 14:08:00,41.4,30.1,29.96,West,267,3.0,17.0,64,0.00,,,0.01,243,HR-IXP-WINDi_r2_v1.2,2013-04-13 19:08:00,
2013-04-13 14:13:00,41.8,30.5,29.96,SW,232,6.0,13.0,64,0.00,,,0.01,160,HR-IXP-WINDi_r2_v1.2,2013-04-13 19:13:00,
2013-04-13 14:18:00,41.5,29.4,29.96,West,267,2.0,13.0,62,0.00,,,0.01,176,HR-IXP-WINDi_r2_v1.2,2013-04-13 19:18:00,
2013-04-13 14:23:00,41.4,29.7,29.96,WNW,298,12.0,16.0,63,0.00,,,0.01,325,HR-IXP-WINDi_r2_v1.2,2013-04-13 19:23:00,
2013-04-13 14:28:00,41.6,29.5,29.96,WSW,257,8.0,16.0,62,0.00,,,0.01,322,HR-IXP-WINDi_r2_v1.2,2013-04-13 19:28:00,
2013-04-13 14:33:00,42.1,29.2,29.96,West,264,4.0,18.0,60,0.00,,,0.01,195,HR-IXP-WINDi_r2_v1.2,2013-04-13 19:33:00,
2013-04-13 14:38:00,42.0,29.1,29.96,WNW,291,5.0,18.0,60,0.00,,,0.01,211,HR-IXP-WINDi_r2_v1.2,2013-04-13 19:38:00,
2013-04-13 14:44:00,41.9,29.8,29.96,West,280,9.0,11.0,62,0.00,,,0.01,199,HR-IXP-WINDi_r2_v1.2,2013-04-13 19:44:00,
2013-04-13 14:50:00,41.9,30.2,29.96,SW,236,4.0,12.0,63,0.00,,,0.01,199,HR-IXP-WINDi_r2_v1.2,2013-04-13 19:50:00,
2013-04-13 14:55:00,41.8,30.1,29.96,West,275,10.0,14.0,63,0.00,,,0.01,169,HR-IXP-WINDi_r2_v1.2,2013-04-13 19:55:00,
2013-04-13 15:01:00,41.8,30.1,29.96,West,269,7.0,14.0,63,0.00,,,0.01,153,HR-IXP-WINDi_r2_v1.2,2013-04-13 20:01:00,
2013-04-13 15:06:00,41.6,29.1,29.96,WSW,245,9.0,17.0,61,0.00,,,0.01,123,HR-IXP-WINDi_r2_v1.2,2013-04-13 20:06:00,
2013-04-13 15:11:00,41.4,29.3,29.96,West,269,7.0,17.0,62,0.00,,,0.01,174,HR-IXP-WINDi_r2_v1.2,2013-04-13 20:11:00,
2013-04-13 15:16:00,41.3,29.2,29.96,WNW,294,4.0,12.0,62,0.00,,,0.01,144,HR-IXP-WINDi_r2_v1.2,2013-04-13 20:16:00,
2013-04-13 15:22:00,41.4,29.3,29.96,West,274,8.0,11.0,62,0.00,,,0.01,123,HR-IXP-WINDi_r2_v1.2,2013-04-13 20:22:00,
2013-04-13 15:27:00,41.6,30.3,29.96,WSW,238,7.0,11.0,64,0.00,,,0.01,132,HR-IXP-WINDi_r2_v1.2,2013-04-13 20:27:00,
2013-04-13 15:32:00,41.7,30.4,29.97,SW,217,5.0,17.0,64,0.00,,,0.01,156,HR-IXP-WINDi_r2_v1.2,2013-04-13 20:32:00,
2013-04-13 15:37:00,41.9,31.0,29.97,West,277,4.0,17.0,65,0.00,,,0.01,248,HR-IXP-WINDi_r2_v1.2,2013-04-13 20:37:00,
2013-04-13 15:43:00,42.3,30.6,29.97,SSW,204,2.0,13.0,63,0.00,,,0.01,162,HR-IXP-WINDi_r2_v1.2,2013-04-13 20:43:00,
2013-04-13 15:48:00,42.3,30.6,29.97,WSW,254,7.0,13.0,63,0.00,,,0.01,130,HR-IXP-WINDi_r2_v1.2,2013-04-13 20:48:00,
2013-04-13 15:53:00,42.1,30.4,29.97,West,271,9.0,12.0,63,0.00,,,0.01,237,HR-IXP-WINDi_r2_v1.2,2013-04-13 20:53:00,
2013-04-13 15:58:00,42.2,30.1,29.97,West,271,14.0,14.0,62,0.00,,,0.01,216,HR-IXP-WINDi_r2_v1.2,2013-04-13 20:58:00,
2013-04-13 16:03:00,42.2,30.5,29.97,WSW,238,5.0,16.0,63,0.00,,,0.01,176,HR-IXP-WINDi_r2_v1.2,2013-04-13 21:03:00,
2013-04-13 16:08:00,42.3,30.6,29.97,SW,218,9.0,16.0,63,0.00,,,0.01,246,HR-IXP-WINDi_r2_v1.2,2013-04-13 21:08:00,
2013-04-13 16:13:00,42.6,30.9,29.97,WNW,282,10.0,14.0,63,0.00,,,0.01,197,HR-IXP-WINDi_r2_v1.2,2013-04-13 21:13:00,
2013-04-13 16:18:00,42.7,30.6,29.97,West,263,6.0,14.0,62,0.00,,,0.01,176,HR-IXP-WINDi_r2_v1.2,2013-04-13 21:18:00,
2013-04-13 16:23:00,42.7,31.3,29.96,West,267,0.0,12.0,64,0.00,,,0.01,167,HR-IXP-WINDi_r2_v1.2,2013-04-13 21:23:00,
2013-04-13 16:28:00,42.7,31.0,29.97,WSW,253,0.0,11.0,63,0.00,,,0.01,174,HR-IXP-WINDi_r2_v1.2,2013-04-13 21:28:00,
2013-04-13 16:33:00,42.9,30.8,29.96,West,269,8.0,13.0,62,0.00,,,0.01,197,HR-IXP-WINDi_r2_v1.2,2013-04-13 21:33:00,
2013-04-13 16:38:00,43.2,30.2,29.96,WNW,297,6.0,19.0,60,0.00,,,0.01,248,HR-IXP-WINDi_r2_v1.2,2013-04-13 21:38:00,
2013-04-13 16:44:00,43.3,30.3,29.96,WSW,250,9.0,19.0,60,0.00,,,0.01,155,HR-IXP-WINDi_r2_v1.2,2013-04-13 21:44:00,
2013-04-13 16:49:00,43.3,29.9,29.97,WSW,253,7.0,15.0,59,0.00,,,0.01,155,HR-IXP-WINDi_r2_v1.2,2013-04-13 21:49:00,
2013-04-13 16:54:00,43.8,31.2,29.97,West,271,9.0,15.0,61,0.00,,,0.01,390,HR-IXP-WINDi_r2_v1.2,2013-04-13 21:54:00,
2013-04-13 16:59:00,44.0,30.1,29.97,West,277,8.0,14.0,58,0.00,,,0.01,134,HR-IXP-WINDi_r2_v1.2,2013-04-13 21:59:00,
2013-04-13 17:04:00,43.6,30.2,29.97,West,275,1.0,13.0,59,0.00,,,0.01,156,HR-IXP-WINDi_r2_v1.2,2013-04-13 22:04:00,
2013-04-13 17:10:00,43.6,30.6,29.96,NW,314,4.0,12.0,60,0.00,,,0.01,200,HR-IXP-WINDi_r2_v1.2,2013-04-13 22:10:00,
2013-04-13 17:15:00,44.3,30.4,29.96,WSW,250,9.0,14.0,58,0.00,,,0.01,265,HR-IXP-WINDi_r2_v1.2,2013-04-13 22:15:00,
2013-04-13 17:20:00,44.8,30.9,29.96,West,277,4.0,14.0,58,0.00,,,0.01,113,HR-IXP-WINDi_r2_v1.2,2013-04-13 22:20:00,
2013-04-13 17:25:00,44.7,30.8,29.96,WSW,251,4.0,12.0,58,0.00,,,0.01,104,HR-IXP-WINDi_r2_v1.2,2013-04-13 22:25:00,
2013-04-13 17:30:00,44.4,30.9,29.97,SW,232,7.0,12.0,59,0.00,,,0.01,127,HR-IXP-WINDi_r2_v1.2,2013-04-13 22:30:00,
2013-04-13 17:35:00,44.2,30.8,29.97,West,259,2.0,10.0,59,0.00,,,0.01,120,HR-IXP-WINDi_r2_v1.2,2013-04-13 22:35:00,
2013-04-13 17:40:00,44.4,30.9,29.97,WSW,254,3.0,13.0,59,0.00,,,0.01,352,HR-IXP-WINDi_r2_v1.2,2013-04-13 22:40:00,
2013-04-13 17:46:00,44.5,31.5,29.97,West,271,7.0,13.0,60,0.00,,,0.01,102,HR-IXP-WINDi_r2_v1.2,2013-04-13 22:46:00,
2013-04-13 17:51:00,44.3,31.3,29.97,WSW,245,3.0,11.0,60,0.00,,,0.01,77,HR-IXP-WINDi_r2_v1.2,2013-04-13 22:51:00,
2013-04-13 17:56:00,44.1,31.1,29.97,WSW,248,6.0,11.0,60,0.00,,,0.01,67,HR-IXP-WINDi_r2_v1.2,2013-04-13 22:56:00,
2013-04-13 18:01:00,43.9,31.3,29.97,SW,227,5.0,11.0,61,0.00,,,0.01,62,HR-IXP-WINDi_r2_v1.2,2013-04-13 23:01:00,
2013-04-13 18:06:00,43.8,31.6,29.97,West,267,3.0,11.0,62,0.00,,,0.01,49,HR-IXP-WINDi_r2_v1.2,2013-04-13 23:06:00,
2013-04-13 18:12:00,43.8,32.0,29.97,WSW,256,0.0,6.0,63,0.00,,,0.01,120,HR-IXP-WINDi_r2_v1.2,2013-04-13 23:12:00,
2013-04-13 18:17:00,43.8,31.6,29.97,WNW,287,0.0,11.0,62,0.00,,,0.01,51,HR-IXP-WINDi_r2_v1.2,2013-04-13 23:17:00,
2013-04-13 18:22:00,43.8,31.6,29.97,WSW,251,4.0,11.0,62,0.00,,,0.01,60,HR-IXP-WINDi_r2_v1.2,2013-04-13 23:22:00,
2013-04-13 18:27:00,43.7,31.1,29.97,SSW,212,3.0,11.0,61,0.00,,,0.01,30,HR-IXP-WINDi_r2_v1.2,2013-04-13 23:27:00,
2013-04-13 18:33:00,43.6,31.4,29.97,West,266,3.0,11.0,62,0.00,,,0.01,42,HR-IXP-WINDi_r2_v1.2,2013-04-13 23:33:00,
2013-04-13 18:38:00,43.5,31.3,29.96,West,261,2.0,10.0,62,0.00,,,0.01,25,HR-IXP-WINDi_r2_v1.2,2013-04-13 23:38:00,
2013-04-13 18:43:00,43.4,31.2,29.96,West,267,4.0,10.0,62,0.00,,,0.01,32,HR-IXP-WINDi_r2_v1.2,2013-04-13 23:43:00,
2013-04-13 18:48:00,43.3,31.5,29.97,WNW,288,2.0,8.0,63,0.00,,,0.01,19,HR-IXP-WINDi_r2_v1.2,2013-04-13 23:48:00,
2013-04-13 18:53:00,43.3,31.9,29.97,West,270,5.0,8.0,64,0.00,,,0.01,19,HR-IXP-WINDi_r2_v1.2,2013-04-13 23:53:00,
2013-04-13 18:58:00,43.2,31.8,29.97,WSW,252,1.0,6.0,64,0.00,,,0.01,11,HR-IXP-WINDi_r2_v1.2,2013-04-13 23:58:00,
2013-04-13 19:03:00,43.1,31.7,29.97,West,273,4.0,8.0,64,0.00,,,0.01,7,HR-IXP-WINDi_r2_v1.2,2013-04-14 00:03:00,
2013-04-13 19:09:00,43.0,31.6,29.97,WNW,285,4.0,8.0,64,0.00,,,0.01,5,HR-IXP-WINDi_r2_v1.2,2013-04-14 00:09:00,
2013-04-13 19:14:00,43.0,31.6,29.97,West,269,0.0,8.0,64,0.00,,,0.01,5,HR-IXP-WINDi_r2_v1.2,2013-04-14 00:14:00,
2013-04-13 19:19:00,42.9,31.9,29.97,West,277,3.0,7.0,65,0.00,,,0.01,0,HR-IXP-WINDi_r2_v1.2,2013-04-14 00:19:00,
2013-04-13 19:24:00,42.9,31.9,29.97,West,277,5.0,6.0,65,0.00,,,0.01,0,HR-IXP-WINDi_r2_v1.2,2013-04-14 00:24:00,
2013-04-13 19:29:00,42.8,31.8,29.97,West,269,5.0,8.0,65,0.00,,,0.01,0,HR-IXP-WINDi_r2_v1.2,2013-04-14 00:29:00,
2013-04-13 19:34:00,42.7,31.7,29.97,SW,236,3.0,8.0,65,0.00,,,0.01,0,HR-IXP-WINDi_r2_v1.2,2013-04-14 00:34:00,
2013-04-13 19:39:00,42.7,31.7,29.97,West,275,2.0,8.0,65,0.00,,,0.01,0,HR-IXP-WINDi_r2_v1.2,2013-04-14 00:39:00,
2013-04-13 19:44:00,42.5,31.5,29.98,West,269,5.0,10.0,65,0.00,,,0.01,0,HR-IXP-WINDi_r2_v1.2,2013-04-14 00:44:00,
2013-04-13 19:50:00,42.4,31.4,29.98,WSW,239,3.0,10.0,65,0.00,,,0.01,0,HR-IXP-WINDi_r2_v1.2,2013-04-14 00:50:00,
2013-04-13 19:55:00,42.3,31.3,29.98,WSW,257,0.0,7.0,65,0.00,,,0.01,0,HR-IXP-WINDi_r2_v1.2,2013-04-14 00:55:00,
2013-04-13 20:00:00,42.2,31.6,29.98,West,261,3.0,6.0,66,0.00,,,0.01,0,HR-IXP-WINDi_r2_v1.2,2013-04-14 01:00:00,
2013-04-13 20:05:00,42.0,31.8,29.98,West,261,0.0,4.0,67,0.00,,,0.01,0,HR-IXP-WINDi_r2_v1.2,2013-04-14 01:05:00,
2013-04-13 20:11:00,41.9,31.7,29.98,West,261,0.0,4.0,67,0.00,,,0.01,0,HR-IXP-WINDi_r2_v1.2,2013-04-14 01:11:00,
2013-04-13 20:16:00,41.8,31.6,29.98,West,261,0.0,2.0,67,0.00,,,0.01,0,HR-IXP-WINDi_r2_v1.2,2013-04-14 01:16:00,
2013-04-13 20:21:00,41.6,31.8,29.99,West,261,0.0,2.0,68,0.00,,,0.01,0,HR-IXP-WINDi_r2_v1.2,2013-04-14 01:21:00,
2013-04-13 20:26:00,41.5,31.7,29.99,West,261,0.0,2.0,68,0.00,,,0.01,0,HR-IXP-WINDi_r2_v1.2,2013-04-14 01:26:00,
2013-04-13 20:31:00,41.3,31.5,29.98,West,261,0.0,2.0,68,0.00,,,0.01,0,HR-IXP-WINDi_r2_v1.2,2013-04-14 01:31:00,
2013-04-13 20:37:00,41.2,31.4,29.99,West,261,0.0,1.0,68,0.00,,,0.01,0,HR-IXP-WINDi_r2_v1.2,2013-04-14 01:37:00,
2013-04-13 20:42:00,41.0,31.6,29.99,West,261,0.0,1.0,69,0.00,,,0.01,0,HR-IXP-WINDi_r2_v1.2,2013-04-14 01:42:00,
2013-04-13 20:47:00,40.9,31.5,29.99,West,261,0.0,1.0,69,0.00,,,0.01,0,HR-IXP-WINDi_r2_v1.2,2013-04-14 01:47:00,
2013-04-13 20:52:00,40.7,31.7,29.99,West,261,0.0,1.0,70,0.00,,,0.01,0,HR-IXP-WINDi_r2_v1.2,2013-04-14 01:52:00,
2013-04-13 20:57:00,40.5,31.5,29.99,West,261,0.0,1.0,70,0.00,,,0.01,0,HR-IXP-WINDi_r2_v1.2,2013-04-14 01:57:00,
2013-04-13 21:02:00,40.3,31.3,29.99,West,261,0.0,0.0,70,0.00,,,0.01,0,HR-IXP-WINDi_r2_v1.2,2013-04-14 02:02:00,
2013-04-13 21:08:00,40.0,31.3,29.99,West,261,0.0,0.0,71,0.00,,,0.01,0,HR-IXP-WINDi_r2_v1.2,2013-04-14 02:08:00,
2013-04-13 21:13:00,39.8,31.5,29.99,West,261,0.0,0.0,72,0.00,,,0.01,0,HR-IXP-WINDi_r2_v1.2,2013-04-14 02:13:00,
2013-04-13 21:18:00,39.5,31.2,29.99,West,261,0.0,0.0,72,0.00,,,0.01,0,HR-IXP-WINDi_r2_v1.2,2013-04-14 02:18:00,
2013-04-13 21:23:00,39.1,31.2,29.99,West,261,0.0,0.0,73,0.00,,,0.01,0,HR-IXP-WINDi_r2_v1.2,2013-04-14 02:23:00,
2013-04-13 21:28:00,38.7,31.1,29.99,West,261,0.0,0.0,74,0.00,,,0.01,0,HR-IXP-WINDi_r2_v1.2,2013-04-14 02:28:00,
2013-04-13 21:33:00,38.2,30.6,30.00,West,261,0.0,0.0,74,0.00,,,0.01,0,HR-IXP-WINDi_r2_v1.2,2013-04-14 02:33:00,
2013-04-13 21:39:00,37.8,30.9,29.99,West,261,0.0,0.0,76,0.00,,,0.01,0,HR-IXP-WINDi_r2_v1.2,2013-04-14 02:39:00,
2013-04-13 21:44:00,37.3,30.4,30.00,West,261,0.0,0.0,76,0.00,,,0.01,0,HR-IXP-WINDi_r2_v1.2,2013-04-14 02:44:00,
2013-04-13 21:50:00,36.9,30.7,30.00,West,261,0.0,0.0,78,0.00,,,0.01,0,HR-IXP-WINDi_r2_v1.2,2013-04-14 02:50:00,
2013-04-13 21:55:00,36.5,30.6,30.00,West,261,0.0,0.0,79,0.00,,,0.01,0,HR-IXP-WINDi_r2_v1.2,2013-04-14 02:55:00,
2013-04-13 22:00:00,36.2,30.3,30.00,West,261,0.0,0.0,79,0.00,,,0.01,0,HR-IXP-WINDi_r2_v1.2,2013-04-14 03:00:00,
2013-04-13 22:05:00,35.9,30.3,30.00,West,261,0.0,0.0,80,0.00,,,0.01,0,HR-IXP-WINDi_r2_v1.2,2013-04-14 03:05:00,
2013-04-13 22:11:00,35.5,30.2,30.00,West,261,0.0,0.0,81,0.00,,,0.01,0,HR-IXP-WINDi_r2_v1.2,2013-04-14 03:11:00,
2013-04-13 22:16:00,35.2,30.2,30.00,West,261,0.0,0.0,82,0.00,,,0.01,0,HR-IXP-WINDi_r2_v1.2,2013-04-14 03:16:00,
2013-04-13 22:21:00,35.0,30.0,30.00,West,261,0.0,0.0,82,0.00,,,0.01,0,HR-IXP-WINDi_r2_v1.2,2013-04-14 03:21:00,
2013-04-13 22:26:00,34.7,30.0,30.00,West,261,0.0,0.0,83,0.00,,,0.01,0,HR-IXP-WINDi_r2_v1.2,2013-04-14 03:26:00,
2013-04-13 22:32:00,34.6,30.2,30.00,West,261,0.0,0.0,84,0.00,,,0.01,0,HR-IXP-WINDi_r2_v1.2,2013-04-14 03:32:00,
2013-04-13 22:37:00,34.5,30.7,30.00,West,261,0.0,0.0,86,0.00,,,0.01,0,HR-IXP-WINDi_r2_v1.2,2013-04-14 03:37:00,
2013-04-13 22:42:00,34.5,31.0,30.00,West,261,0.0,0.0,87,0.00,,,0.01,0,HR-IXP-WINDi_r2_v1.2,2013-04-14 03:42:00,
2013-04-13 22:47:00,34.6,31.1,30.00,West,261,0.0,0.0,87,0.00,,,0.01,0,HR-IXP-WINDi_r2_v1.2,2013-04-14 03:47:00,
2013-04-13 22:52:00,34.7,31.2,30.00,West,261,0.0,0.0,87,0.00,,,0.01,0,HR-IXP-WINDi_r2_v1.2,2013-04-14 03:52:00,
2013-04-13 22:57:00,34.7,31.2,30.00,West,261,0.0,0.0,87,0.00,,,0.01,0,HR-IXP-WINDi_r2_v1.2,2013-04-14 03:57:00,
2013-04-13 23:00:00,34.7,31.2,30.00,West,261,0.0,0.0,87,0.00,,,0.01,0,HR-IXP-WINDi_r2_v1.2,2013-04-14 04:00:00,
2013-04-13 23:05:00,34.8,31.6,30.00,West,261,0.0,0.0,88,0.00,,,0.01,0,HR-IXP-WINDi_r2_v1.2,2013-04-14 04:05:00,
2013-04-13 23:10:00,34.9,31.7,30.00,West,261,0.0,0.0,88,0.00,,,0.01,0,HR-IXP-WINDi_r2_v1.2,2013-04-14 04:10:00,
2013-04-13 23:15:00,35.0,32.1,30.01,West,261,0.0,0.0,89,0.00,,,0.01,0,HR-IXP-WINDi_r2_v1.2,2013-04-14 04:15:00,
2013-04-13 23:20:00,35.2,32.3,30.01,West,261,0.0,0.0,89,0.00,,,0.01,0,HR-IXP-WINDi_r2_v1.2,2013-04-14 04:20:00,
2013-04-13 23:26:00,35.2,32.3,30.00,West,261,0.0,0.0,89,0.00,,,0.01,0,HR-IXP-WINDi_r2_v1.2,2013-04-14 04:26:00,
2013-04-13 23:31:00,35.3,32.1,30.00,West,261,0.0,0.0,88,0.00,,,0.01,0,HR-IXP-WINDi_r2_v1.2,2013-04-14 04:31:00,
2013-04-13 23:36:00,35.5,32.3,30.00,West,261,0.0,0.0,88,0.00,,,0.01,0,HR-IXP-WINDi_r2_v1.2,2013-04-14 04:36:00,
2013-04-13 23:41:00,35.5,32.3,30.00,West,261,0.0,0.0,88,0.00,,,0.01,0,HR-IXP-WINDi_r2_v1.2,2013-04-14 04:41:00,
2013-04-13 23:46:00,35.7,32.5,30.00,West,261,0.0,0.0,88,0.00,,,0.01,0,HR-IXP-WINDi_r2_v1.2,2013-04-14 04:46:00,
2013-04-13 23:51:00,35.9,32.7,30.01,West,261,0.0,1.0,88,0.00,,,0.01,0,HR-IXP-WINDi_r2_v1.2,2013-04-14 04:51:00,
2013-04-13 23:57:00,35.9,32.7,30.01,West,261,0.0,1.0,88,0.00,,,0.01,0,HR-IXP-WINDi_r2_v1.2,2013-04-14 04:57:00,